[Date Prev][Date Next][Thread Prev][Thread Next][Date Index][Thread Index]

[jamsat-news:1721] jas2info #278



========================   最新情報   ==============================

        Last updated  08Jun2002  15:30(JST)   #278

====================================================================
   
1)アマチュア通信衛星情報、FOシリーズの軌道要素、テレメトリ、QSOの
   状況等をまとめてみました.
   
 FO−29の2002年6月7日(金)の18:09(JST)のパスでは
JARLのホームページのとうりアナログ運用でした。 今日までの観測した
テレメトリーと最終の分析結果を報告しておきます。

AS28667C  07Jun2002
18:09-18:22(JST)
AOS   MEL  LOS  Elev
 13   109  193  84.4
Freq. 435.804-.784MHz
(JAS-2 No.102 B 1980-2430)

                                                         84 8D 8A 8A 8C 83 
HI HI AE 07 88 55 00 D4 14 18 09 4F 87 20 6E 50 91 8D 9A 7A 8D 8A 8A 8C 83 
HI HI AE 07 88 55 00 D4 14 18 09 4F 90 29 71 4F 92 8E 9B 6E 8D 8A 8A 8C 83 
HI HI AE 07 88 55 00 D4 14 18 09 4F 98 33 71 4E 92 8D 9B 67 8D 8A 8A 8D 83 
HI HI AE 07 88 55 00 D4 14 18 09 4F 9F 3F 70 4E 91 8D 9A 69 8D 87 83 8D 83
HI HI AE O7 88 55 00 D4 14 18 09 4F A3 4C 70 4F 91 8D 9A 75 8E 89 8A 8D 83 
HI HI AE 07 88 55 00 D4 14 18 09 4E A7 59 71 4F 91 8D 9A 7D 8E 89 8B 8D 83 
HI HI AE 07 88 55 00 D4 14 18 09 4F A8 67 70 4F 91 8E 9A 81 8E 89 8B 8D 83 
HI HI AE 07 88 55 00 D4 14 18 09 4F A7 74 73 4E 91 8D 9A 66 8E 89 8B 8D 83 
HI HI AE 07 88 55 00 D4 14 18 09 4F A4 82 75 4E 91 8D 9B 67 8D 89 8B 8D 83 
HI HI AE 07 88 55 00 D4 14 18 09 4F A0 87 76 46 92 8E 9B 68 8D 89 8B 8D 83 
HI HI AE 07 88 55 00 D4 14 18 09 4F 99 95 76 4D 92 8E 9B 68 8D 88 8B 8D 83 
HI HI AE 07 88 55 00 D4 14 18 09 4F 90 9C 76 4D 92 8E 9B 76 8D 88 8B 8D 83 
HI HI AE 07 88 55 00 D4 14 18 09 4F 85 9F 75 4D 92 8D 9B 60 8D 88 8B 8D 83 
HI HI AE 07 88 55 00 D4 14 18 09 4F 79 9F 66 4D 92 8D 9B 7E 8D 88 8B 8D 83 
HI HI AE 07 88 55 00 D4 14 18 09 4F 6D 9B 76 4D 91 8D 9B 86 8D 88 8B 8D 83 
HI HI AE 07 88 55 00 D4 14 18 08 4F 6E 94 75 4C 91 8D 9A 73 8D 88 8B 8D 83 
HI HI AE O7 88 55 00 D4 14 18 08 4F 6F 91 76 4C 91 8D 9A 69 8D 88 8B 8E 83  

AS28666C  07Jun2002
16:28-16:33(JST)
AOS   MEL  LOS  Elev
 51    88  126   5.4
Freq. 435.795-.789MHz
(JAS-2 No.102 B 1770-1980)

HI HI AE 07 88 55 00 D4 7D 80 09 4B 58 35 6O 54 8C 88 95 6E 8B 8B 8C 8B 82
HI HI AE 07 88 55 00 D4 7D 80 09 4B 5A 3A 6B 53 8D 8A 96 73 8B 8B 8C 8B 82 
HI HI AE 07 88 55 00 D4 7D 80 09 4B 5B 40 71 4F 90 8A 99 7A 8B 8B 8C 8B 82 
HI HI AE 07 88 55 00 D4 7D 80 09 4B 5A 48 73 4E 92 8E 9B 71 8B 8B 8C 8B 82 
HI HI AE 07 88 55 00 D4 7D 80 09 4B 56 50 76 4C 93 8E 9B 81 8B 8B 8C 8B 82 
HI HI AE 07 88 55 00 D4 7D 80 09 4B 52 59 79 4B 93 8E 9C 83 8

AS28654C  06Jun2002
19:03-19:16(JST)
AOS   MEL  LOS  Elev
360   291  222  28.5
Freq. 435.803-.785MHz
(JAS-2 No.102 B 1170-1770)

HI HI AE 07 88 55 00 D4 09 A4 09 3E 5B 3A 74 4E 90 8C 9A 70 93 90 85 8A 83
HI HI AE 07 88 55 00 D4 09 A4 09 3E 5C 4A 75 4E 90 8D 9A 7B 93 90 85 8A 83 
HI HI AE 07 88 55 00 D4 09 A4 09 3E 5E 5A 75 4D 91 8D 9A 79 93 90 85 8A 83 
HI HI AE 07 88 55 00 D4 09 A4 09 3E 62 6B 77 4B 91 8D 9B 6B 93 90 85 8A 83 
HI HI AE 07 88 55 00 D4 09 A4 09 3E 67 7D 77 4C 92 8D 9B A2 93 90 85 8A 83 
HI HI AE 07 88 55 00 D4 09 A4 09 3E 6E 8C 78 49 92 8E 9B 74 93 90 85 8A 83 
HI HI AE 07 88 55 00 D4 09 A4 09 3E 64 9A 79 4C 92 8E 9B 87 93 90 85 8A 83 
HI HI AE 07 88 55 00 D4 09 A4 09 3E 6B A5 7A 4B 92 8E 9B 77 93 90 85 8A 83 
HI HI AE 07 88 55 00 D4 09 A4 09 3E 81 AC 7B 4A 92 8E 9C 6B 93 8F 85 8A 83 
HI HI AE 07 88 55 00 D4 09 A4 09 5E 86 AF 7C 49 93 8E 9C 86 93 8F 85 8A 83 
HI HI AE 07 88 55 00 D4 09 A4 09 3E 8A AD 7D 48 92 8E 9C 79 93 8F 85 7A 83 
HI HI AE 07 88 55 00 D4 09 A4 09 3E 8B A7 7C 4A 92 8E 9C 47 93 8F 85 8A 83 
HI HI AE 07 88 55 00 D4 09 A4 09 3E 7A 9D 7C 4A 92 8E 9B 59 93 8F 85 8A 83 
HI HI AE 07 88 55 00 D4 09 A4 09 3E 87 8F 7B 49 92 8E 9B 88 93 8F 84 8A 83 
HI HI AE 07 88 55 00 D4 09 A4 09 3E 81 7F 7B 49 92 8E 9B 6E 93 8F 85 8A 83 
HI HI AE 07 88 55 00 D4 09 A4 09 3E 79 6F 7B 4A 92 8E 9B 79 93 8F 84 8A 83 
HI HI AE 07 88 55 00 D4 09 A4 09 

AS28653C  06Jun2002
17:27-17:31(JST)
AOS   MEL  LOS  Elev
 27    96  165  25.9
Freq. 435.788-.786MHz
(JAS-2 No.102 B 950-1170)

HI HI AE 07 88 55 00 D4 09 A4 09 3E 36 6B 76 4D 90 8D 9A 7A 8F 8D 8A 8B 84 
HI HI AE 07 88 55 00 D4 09 A4 09 3E 37 78 73 4E 90 8C 99 7A 8F 8D 8A 8B 84 
HI HI AE 07 88 55 00 D4 09 A4 09 3E 3B 86 73 4E 90 8C 99 7D 8F 8E 8A 8B 84 
HI HI AE 07 88 55 00 D4 09 A4 09 3E 42 92 73 4E 90 8C 99 88 8F 8D 8A 8B 84 
HI HI AE 07 88 55 00 D4 09 A4 09 3E 4C 9D 73 4E 90 8C 99 85 8F 8D 8A 8B 84 

AS28640C  05Jun2002
18:22-18:26(JST)
AOS   MEL  LOS  Elev
 12   314  194  88.9
Freq. 435.786-.785MHz
(JAS-2 No.102 B 500-950)

HI HI AE 07  8 55 00 D4 51 2A 09 5B 74 90 69 53 8C 89 95 84 92 8E 89 8C 84 
HI HI AE 07  8 55 00 D4 51 2A 09 5B 7A 85 55 7E 8D 88 96 84 91 8E 89 8C 85 
HI HI AE 07 88 55 00 D4 51 2A 09 5B 7A 88 6D 50 8E 8A 96 84 91 8E 8A 8C 84 
HI HI AE 07 88 55 00 D4 51 2A 09 5B 6B 8C 6F 4E 8E 8B 98 83 91 8E 8A 8C 84 
HI HI AE 07 88 55 00 D4 51 2A 09 5B 8B 72 4E 90 8E 8B 99 75 90 8F 8A 8C 84 
HI HI AE 07 88 55 00 D4 51 2A 09 5B 63 8A 73 4E 90 8D 9A 71 90 6F 8A 8C 84 
HI HI AE 07 88 55 00 D4 51 2A 09 5 

AS28626C  04Jun2002
17:21-17:35(JST)
AOS   MEL  LOS  Elev
 25    97  167  28.3
Freq. 435.795-.786MHz
(JAS-2 No.102 B 0-500)

HI HI AE 07 88 55 00 D4 41 44 09 17 66 A3 5D 57 89 87 93 76 8B 8C 8F 8C 84 
HI HI AE 07 8  55 00 D4 41 44 09 17 64 A5 6E 53 8A 87 94 85 8B 8C 8F 8C 84 
HI HI AE 07 88 55 00 D4 41 44 09 10 60 8E 6D 51 8B 88 95 7A 8B 8C 8F 8C 84 
HI HI AE 07 88 55 00 D4 41 44 09 10 5E 9D 72 4E 8D 89 96 6C 8B 8C 8F 8C 84 
HI HI AE 07 88 55 00 D4 41 44 09 10 5E A7 78 4C 90 8C 9A 79 8B 8C 8F 8C 84 
HI HI AE 07 88 55 00 D4 41 44 09 10 55 AB 78 4B 92 8E 9B 7E 8B 8C 8F 8C 84 
HI HI AE 07 88 55 00 D4 41 44 09 10 67 A9 76 4C 91 7D 9A 7B 8B 8C 8F 8C 74 
HI HI AE 07 88 55 00 D4 41 44 09 10 6F A4 73 4E 90 7B 6A 78 8B 8C 8F 8C 84 
HI HI AE 07 88 55 00 D4 41 44 09 10 65 AD 74 4D 90 8C 9A 78 8B 8C 8F 8C 84 

AS28613C  03Jun2002
18:17-18:31(JST)
AOS   MEL  LOS  Elev
 11   291  196  82.7
Freq. 435.804-.785MHz
(JAS-2 No.102 A  514End)

HI HI AE 07 88 55 00 D4 5A 58 09 44 5E 27 69 52 8D 89 96 87 8E 8C 8B 8C 83 
HI HI AE 07 88 55 00 D4 5A 58 09 44 5F 5E 55 63 8B 88 94 81 8E 8C 8B 8C 83 
HI HI AE 07 88 55 00 D4 5A 58 09 44 5E 5F 55 59 8A 87 93 83 8E 8C 8B 8C 83 
HI HI AE 07 88 55 00 D4 5A 58 09 44 5E 3F 56 5F 88 86 91 89 8E 8C 8B 8C 83 
HI HI AE 07 88 55 00 D4 5A 58 09 44 5B 4B 51 5E 87 85 91 85 8E 8B 8B 8C 83 
HI HI AE 07 88 55 00 D4 5A 58 09 44 58 58 52 5E 87 84 90 7A 8E 8C 8B 8C 83 
HI HI AE 07 88 55 00 D4 5A 58 09 44 54 65 55 5A 87 84 90 78 8E 8C 8B 8C 83 
HI HI AE 07 88 55 00 D4 5A 58 09 44 4F 73 57 5B 87 84 99 73 8E 8C 8B 8C 83 
HI HI AE 07 88 55 00 D4 5A 57 09 44 4E 80 5D 59 87 84 90 71 8E 8C 8B 8C 83 
HI HI AE 07 88 55 00 D4 5A 58 09 44 45 8C 64 55 87 85 91 75 8F 8B 8B 8C 83 
HI HI AE 07 88 55 00 D4 5A 58 09 44 41 95 68 52 88 85 91 88 8F 8C 8B 8C 83 
HI HI AE 07 88 55 00 D4 5A 58 09 44 40 9A 6A 53 88 5I 92 68 8F 8C 8B 8C 83 
HI HI AE 07 88 55 00 D4 5A 58 09 44 40 9E 6C 51 89 86 92 79 8F 8C 8B 8C 83 
HI HI AE 07 88 55 00 D4 5A 58 09 44 45 9F 76 4D 8A 87 94 70 8F 8C 8B 8C 84
HI HI AE 07 88 55 00 D4 5A 58 09 44 46 9E 7D 4A 8D 8A 97 7F 8F 8C 8B 8C 84 
HI HI AE 07 88 55 00 D4 5A 58 09 44 4B 9C 7E 49 90 8C 99 8E 8F 8C 8B 8C 84 
HI HI AE 07 88 55 00 D4 5A 58 09 44 51 99 7C 49 91 8C 9A B1 8F 8C 8B 8B 84 
HI HI AE 07 88 55 00 D4 5A 58 09 44 57 97 7B 4A 99 6C 99 7D 8F 8C 8A 8B 83 
HI HI AE 07 88 55 00 D4 5A 58 09 44 5D 94 74 4D 8F 8B 98 73 8F 8C 8A 8B 83 
HI HI AE 07 88 55 00 D4 5A 58 09 44 63 93 70 50 8D 8A 97 7O 8F 8C 8A 8B 83
 
------------------------ FO-29の軌道要素 ------------------------------        
 
  ■ 軌道要素1:「jamsat−keps:1211」より         
          SB KEPS @ AMSAT  $ORB02158.N
          2Line Orbital Elements 02158.AMSAT

HR AMSAT ORBITAL ELEMENTS FOR AMATEUR SATELLITES IN NASA FORMAT
FROM WA5QGD FORT WORTH,TX June 7, 2002
SEND SUBSCRIBE/UNSUBSCRIBE TO majordomo@amsat.org ONLY
BID: ORB02158.N

 DECODE 2-LINE ELSETS WITH THE FOLLOWING KEY:
 1 AAAAAU 00  0  0 BBBBB.BBBBBBBB  .CCCCCCCC  00000-0  00000-0 0  DDDZ
 2 AAAAA EEE.EEEE FFF.FFFF GGGGGGG HHH.HHHH III.IIII JJ.JJJJJJJJKKKKKZ
 KEY: A-CATALOGNUM B-EPOCHTIME C-DECAY D-ELSETNUM E-INCLINATION F-RAAN
 G-ECCENTRICITY H-ARGPERIGEE I-MNANOM J-MNMOTION K-ORBITNUM Z-CHECKSUM

FO-29
1 24278U 96046B   02157.91143973  .00000050  00000-0  85040-4 0 05217
2 24278 098.5156 339.3450 0350483 161.8862 199.5140 13.52841929286606

 ■ 軌道要素2:「jamsat−keps:12010」より
        SB KEPS @ AMSAT  $ORB02158.O
        Orbital Elements  02158.OSCAR

HR AMSAT ORBITAL ELEMENTS FOR OSCAR SATELLITES
FROM WA5QGD FORT WORTH,TX June 7, 2002
SEND SUBSCRIBE/UNSUBSCRIBE TO majordomo@amsat.org ONLY
BID: ORB02158.O
TO ALL RADIO AMATEURS BT

Satellite: FO-29
Catalog number: 24278
Epoch time:      02157.91143973
Element set:    0521
Inclination:      098.5156 deg
RA of node:       339.3450 deg
Eccentricity:    0.0350483
Arg of perigee:   161.8862 deg
Mean anomaly:     199.5140 deg
Mean motion:   13.52841929 rev/day
Decay rate:        5.0e-07 rev/day^2
Epoch rev:           28660
Checksum:              321

-------------------  FO-29(JAS-2)のテレメトリに関する情報  ---------------------- 
 
2)上記2002年6月7日(金)のテレメトリの最終行を分析しておきます.

AS28532C  28May2002
18:32-18:45(JST)
AOS   MEL  LOS  Elev
  9   287  202  66.0
Freq. 435.804-.785MHz

HI HI AE 07 88 55 00 D4 00 00 09 00 51 6E 59 5B 88 85 92 6B 8B 8F 8D 87 84 


テレメトリ   内 容         換算算値 単 位
3C	磁気センサーZ軸=	54411.7	[nT]
3D	磁気センサX軸	=	71078.4	[nT]
4A	太陽電池発生電流=	 1156.9	[mA]
4B	B充放電電流	=	 -510.4	[mA]
4C	B端子電圧	=	   15.6	[V]
4D	B中間端子電圧	=	    6.8	[V]
5A	バス電圧	=	   15.1	[V]
5B	JTA送信電力	=	  584.4	[mW]
5C 	構体温度1	=	   27.1	[℃]
5D	構体温度2	=	   29.1	[℃]
6A	構体温度3	=	   27.9	[℃]
6B	構体温度4	=	   26.7	[℃]
6C	Bセル温度	=	   31.0	[℃]

 ========================== FO-29(ふじ3号)のテレメトリ分析、QSO情報等 =====================
   
 3)[jamsat-bb:

 =================================================================================================
 
 4)JARL のホームページに運用予定が記載されていましたのでご紹介します.
       ( http://www.jarl.or.jp/Japanese/3_Fuji/new/uy.htm )
       
        *** 運用予定について ***

